Showing default

QIANFAN-24, 61557

Orbit data source: Space-Track

QIANFAN-24, 61557 is a Chinese payload satellite in LEO that was launched on Tue, 15 Oct 2024 UTC via a CHANG ZHENG 6A launch vehicle from the Taiyaun Space Center, China (TSC). Payload-class satellites include a variety of spacecraft equipped with specific instruments for various scientific and technological missions. These include communications satellites like Starlink; space stations such as the ISS; scientific satellites like the Hubble; Earth observation satellites from companies like Planet Labs, Umbra, and HawkEye 360; GPS; miniature CubeSats for education and research; and military/defense satellites.

Loading next visibility...
Identifier
61557, 2024-185F
Orbit
LEO
Country
Flag of CNCN / PRC
Related business
Manufacturer
GESIH/SECM
Mission
Partially operational Commercial Communications
Bus & Motor
QIANFAN, Unknown motor
Mass
267 kg wet, ~267 kg dry
Launch date (UTC)
2024-10-15 (2 years ago)
Launch vehicle
CHANG ZHENG 6A
Launch site
Taiyaun Space Center, China (TSC)
Object type
Payload
Rocket body
Debris
Shape & HBR
Box + 1 Pan, 5.0 m
Radar Cross Section
13.200 m², Large (>1 m²)

Expand to show TLE details & history
Last TLE update: 13 hours ago

TLE from 13 hours ago
0 QIANFAN-24
1 61557U 24185F   26197.83725811  .00000305  00000-0  12645-3 0  9993
2 61557  88.9787  51.9425 0007980 326.1053  33.9628 14.24099369100776
Epoch: 2026-07-16T20:05Z
TLE epoch observation values (Epoch: 2026-07-16T20:05:39.100Z)
Latitude
-0.00008°
Longitude
175.8566°
Altitude
809.823 km
Speed
7.451 km/s
True Right ascension
03h 27m 46s
True Declination
0° 00' 00"
Sunlit
Object was in daylight at epoch
Visualization orbit readout
Latitude
Unknown
Longitude
Unknown
Altitude
Unknown
Speed
Unknown
Apparent Right ascension
Unknown
Apparent Declination
Unknown
Sunlit
N/A
Visualization observer readout
Local Sidereal Time
21:43:20
Azimuth
Unknown
Elevation
Unknown
Doppler factor
Unknown
Orbital elements
Apogee altitude
814.203 km
Perigee altitude
802.733 km
Semi-major axis
7,186.605 km
Eccentricity
0.0008
Inclination
88.9787°
RAAN
51.9425°
Arg. of periapsis
326.1053°
True anomaly
34.01393°
Mean anomaly
33.9628°
Eccentric anomaly
33.98836°
Mean motion
3.56252 °/min
Orbital period
101.05 mins
BSTAR
0.00012645
Loading maneuver chart data...
Computing Atmospheric mass density...
Loading historical data...
Loading historical data...
Loading historical data...
Loading historical data...
Loading historical data...
Loading historical data...
Loading historical data...

Documentation

Showing up to 5 results
|